Location: Holbach
(51.5399°N, 10.6036°E)
Time: 06:28:58
(UTC+00:00)

Cosmos 2098 Rocket - Pass Details

Date: 18 September 2020
Orbit: 366 x 1185 km, 82.9° (Epoch: 19 October)

Event Time Altitude Azimuth Distance (km) Brightness Sun altitude
Rises 20:52:07 0° 348° (NNW) 4,080 8.1 -29.4°
Reaches altitude 10° 20:54:56 10° 347° (NNW) 3,080 7.3 -29.7°
Maximum altitude 21:02:12 74° 265° (W) 1,107 4.2 -30.4°
Enters shadow 21:02:46 70° 226° (SW) 1,118 4.1 -30.5°
